Location: Big Meadows
(38.5260°N, 78.4400°W)
Time: 10:29:22
(UTC-04:00)

Amateur Radio Satellites - All Passes

Search period start: 02 October 2014 09:59
Search period end: 03 October 2014 09:59
Location: Big Meadows, 38.5260°N, 78.4400°W

Satellite Date Start Highest point End Downlink Frequencies (MHz)
Time Altitude Azimuth
UKube-1 02 Oct 10:08:21 10:11:59 25° 96° (E) 10:15:35 145.840 MHz, 145.915 MHz
Sapphire 02 Oct 10:11:49 10:17:10 62° 300° (WNW) 10:22:33 437.095 MHz 1200 baud AX-25 AFSK
HO-68 02 Oct 10:35:01 10:42:15 85° 287° (WNW) 10:49:27 435.675 MHz FM
PCSat 02 Oct 10:37:51 10:42:48 36° 306° (NW) 10:47:47 145.825 MHz
ZACube-1 02 Oct 10:50:40 10:54:26 25° 95° (E) 10:58:07 437.345 MHz
Oscar 11 02 Oct 11:13:10 11:17:29 71° 284° (WNW) 11:21:45 145.825 FM, Beacon 2401.500 USB
RS-15 02 Oct 11:38:49 11:50:00 75° 57° (ENE) 12:01:39 29.354 - 29.394 USB, Beacon 29.352 USB
FUNcube-1 02 Oct 11:40:51 11:45:24 87° 283° (WNW) 11:49:50 145.950 - 145.970 MHz USB
UKube-1 02 Oct 11:44:26 11:48:06 26° 291° (WNW) 11:51:44 145.840 MHz, 145.915 MHz
Sapphire 02 Oct 12:00:34 12:01:42 11° 320° (NW) 12:02:51 437.095 MHz 1200 baud AX-25 AFSK
HO-68 02 Oct 12:24:52 12:28:54 16° 305° (NW) 12:32:57 435.675 MHz FM
ZACube-1 02 Oct 12:26:55 12:30:46 28° 291° (WNW) 12:34:31 437.345 MHz
JAS-1B 02 Oct 12:46:06 12:50:12 16° 62° (ENE) 12:54:00 435.800 - 435.900 CW/SSB
Oscar 19 02 Oct 13:03:37 13:07:49 26° 67° (ENE) 13:12:01 437.125 CW, 437.150 USB
ITAMSAT 1 02 Oct 13:20:03 13:22:59 15° 62° (ENE) 13:25:56 435.822 SSB
Uribyol 2 02 Oct 13:20:17 13:23:27 17° 63° (ENE) 13:26:38 436.500 FM
AO-Echo 02 Oct 13:43:14 13:47:09 27° 68° (ENE) 13:51:05 ?
Oscar 16 02 Oct 13:43:49 13:48:56 63° 73° (ENE) 13:54:05 437.025 USB, Beacon 2401.1428
RS-15 02 Oct 13:52:26 14:01:21 29° 256° (WSW) 14:10:38 29.354 - 29.394 USB, Beacon 29.352 USB
AO-27 02 Oct 13:56:51 14:01:29 34° 69° (ENE) 14:06:09 436.795 MHz FM
Saudisat 1A 02 Oct 14:08:34 14:12:57 77° 120° (ESE) 14:17:21 436.775 MHz
Gurwin Techsat 1B 02 Oct 14:29:39 14:34:23 34° 69° (ENE) 14:39:07 435.225 FM
JAS-1B 02 Oct 14:32:34 14:40:19 82° 256° (WSW) 14:46:48 435.800 - 435.900 CW/SSB
Oscar 19 02 Oct 14:42:10 14:46:56 37° 262° (W) 14:51:44 437.125 CW, 437.150 USB
AO-7 02 Oct 14:50:30 14:56:02 20° 53° (NE) 15:01:34 29.400 - 29.500 MHz
ITAMSAT 1 02 Oct 14:56:47 15:01:54 65° 258° (WSW) 15:07:04 435.822 SSB
TMSAT-1 02 Oct 14:57:01 15:02:00 45° 71° (ENE) 15:07:02 436.925 FM
Uribyol 2 02 Oct 14:57:18 15:02:24 60° 259° (W) 15:07:33 436.500 FM
MaSat-1 02 Oct 15:05:30 15:08:35 36° 60° (ENE) 15:11:16 437.345 MHz
AO-Echo 02 Oct 15:21:50 15:25:50 28° 264° (W) 15:29:53 ?
Oscar 16 02 Oct 15:25:59 15:28:41 14° 269° (W) 15:31:24 437.025 USB, Beacon 2401.1428
AO-27 02 Oct 15:36:42 15:41:00 27° 264° (W) 15:45:21 436.795 MHz FM
Saudisat 1A 02 Oct 15:50:49 15:53:03 14° 318° (NW) 15:55:18 436.775 MHz
Gurwin Techsat 1B 02 Oct 16:09:50 16:14:20 28° 264° (W) 16:18:51 435.225 FM
KITSAT 1 02 Oct 16:22:57 16:30:07 36° 108° (ESE) 16:37:17 435.175 FM
JAS-1B 02 Oct 16:29:16 16:31:25 11° 269° (W) 16:33:29 435.800 - 435.900 CW/SSB
TMSAT-1 02 Oct 16:38:11 16:42:06 21° 267° (W) 16:46:03 436.925 FM
AO-7 02 Oct 16:39:26 16:47:44 90° 252° (WSW) 16:56:04 29.400 - 29.500 MHz
Uosat F 02 Oct 16:43:16 16:48:14 77° 75° (ENE) 16:53:16 435.120 FM
OPAL 02 Oct 17:00:29 17:02:47 13° 93° (E) 17:05:04 ?
Oscar 10/S400 02 Oct 17:02:39 17:20:38 54° 159° (SSE) 18:01:54 145.825 - 145.975 CW/USB, Beacon 145.810 USB
JAS-2 02 Oct 17:12:21 17:16:27 24° 65° (ENE) 17:20:44 435.800 - 435.900 CW/SSB, 435.910 FM
Sapphire 02 Oct 17:19:52 17:22:16 13° 42° (NE) 17:24:39 437.095 MHz 1200 baud AX-25 AFSK
PCSat 02 Oct 17:44:10 17:48:12 21° 48° (NE) 17:52:12 145.825 MHz
Hamsat 02 Oct 18:07:06 18:11:22 62° 75° (ENE) 18:15:38 145.90 MHz
KITSAT 1 02 Oct 18:17:28 18:25:15 50° 306° (NW) 18:33:05 435.175 FM
Uosat F 02 Oct 18:26:33 18:27:33 11° 270° (W) 18:28:34 435.120 FM
AO-7 02 Oct 18:36:39 18:41:27 16° 269° (W) 18:46:17 29.400 - 29.500 MHz
OPAL 02 Oct 18:37:03 18:42:07 66° 288° (WNW) 18:47:03 ?
JAS-2 02 Oct 18:56:36 19:01:21 37° 263° (W) 19:06:19 435.800 - 435.900 CW/SSB, 435.910 FM
Sapphire 02 Oct 19:01:10 19:06:37 77° 62° (ENE) 19:12:02 437.095 MHz 1200 baud AX-25 AFSK
SO-67 02 Oct 19:11:08 19:14:20 37° 74° (ENE) 19:17:32 435.3500 MHz FM
PANSAT 02 Oct 19:11:22 19:12:58 12° 165° (SSE) 19:14:34 not established
HO-68 02 Oct 19:20:22 19:22:16 11° 51° (NE) 19:24:10 435.675 MHz FM
SO-50 02 Oct 19:25:18 19:29:46 88° 120° (ESE) 19:34:23 436.795 FM
PCSat 02 Oct 19:26:40 19:32:01 60° 246° (WSW) 19:37:19 145.825 MHz
STRAND 1 02 Oct 19:41:16 19:46:12 45° 99° (E) 19:51:07 ?
AO-40 02 Oct 19:44:43 01:36:53 45° 183° (S) 08:19:11 Beacon 2401.320
UOSAT-12 02 Oct 19:46:55 19:48:35 12° 107° (ESE) 19:50:16 437.025 FM, 437.400 FM
Hamsat 02 Oct 19:47:01 19:47:41 10° 270° (W) 19:48:21 145.90 MHz
KITSAT 1 02 Oct 20:18:58 20:22:53 14° 331° (NNW) 20:26:48 435.175 FM
SO-67 02 Oct 20:46:52 20:47:30 10° 268° (W) 20:48:08 435.3500 MHz FM
Sapphire 02 Oct 20:46:59 20:49:18 13° 257° (WSW) 20:51:37 437.095 MHz 1200 baud AX-25 AFSK
PANSAT 02 Oct 20:49:46 20:52:28 18° 178° (S) 20:55:10 not established
HO-68 02 Oct 21:01:33 21:08:33 63° 70° (ENE) 21:15:37 435.675 MHz FM
UKube-1 02 Oct 21:03:05 21:06:10 19° 66° (ENE) 21:09:16 145.840 MHz, 145.915 MHz
SO-50 02 Oct 21:08:55 21:11:01 13° 320° (NW) 21:13:09 436.795 FM
STRAND 1 02 Oct 21:21:16 21:25:03 21° 295° (WNW) 21:28:50 ?
UOSAT-12 02 Oct 21:23:29 21:28:05 70° 303° (WNW) 21:32:48 437.025 FM, 437.400 FM
ISS 02 Oct 21:27:15 21:30:24 41° 136° (SE) 21:33:33 145.800 FM
ZACube-1 02 Oct 21:46:13 21:49:24 19° 66° (ENE) 21:52:38 437.345 MHz
Oscar 11 02 Oct 22:06:24 22:10:45 75° 76° (ENE) 22:15:07 145.825 FM, Beacon 2401.500 USB
PANSAT 02 Oct 22:29:49 22:32:00 15° 191° (S) 22:34:12 not established
FUNcube-1 02 Oct 22:35:18 22:39:46 63° 75° (ENE) 22:44:21 145.950 - 145.970 MHz USB
Saudisat 1A 02 Oct 22:36:43 22:40:54 40° 53° (NE) 22:45:03 436.775 MHz
UKube-1 02 Oct 22:38:09 22:42:06 35° 262° (W) 22:46:06 145.840 MHz, 145.915 MHz
HO-68 02 Oct 22:51:20 22:56:41 23° 266° (W) 23:02:06 435.675 MHz FM
ISS 02 Oct 23:04:25 23:07:11 24° 332° (NNW) 23:09:58 145.800 FM
UOSAT-12 02 Oct 23:07:52 23:09:07 11° 322° (NW) 23:10:22 437.025 FM, 437.400 FM
ZACube-1 02 Oct 23:21:12 23:25:28 40° 262° (W) 23:29:50 437.345 MHz
FUNcube-1 03 Oct 00:15:02 00:16:33 12° 270° (W) 00:18:06 145.950 - 145.970 MHz USB
Saudisat 1A 03 Oct 00:17:00 00:20:11 20° 249° (WSW) 00:23:20 436.775 MHz
KITSAT 1 03 Oct 00:17:44 00:22:46 17° 34° (NE) 00:27:47 435.175 FM
Oscar 16 03 Oct 01:57:41 02:01:52 25° 95° (E) 02:06:01 437.025 USB, Beacon 2401.1428
RS-15 03 Oct 02:00:24 02:11:02 55° 112° (ESE) 02:21:30 29.354 - 29.394 USB, Beacon 29.352 USB
KITSAT 1 03 Oct 02:11:51 02:19:54 65° 57° (ENE) 02:27:52 435.175 FM
AO-27 03 Oct 02:12:50 02:15:22 14° 91° (E) 02:17:53 436.795 MHz FM
JAS-1B 03 Oct 02:19:02 02:23:44 25° 96° (E) 02:28:47 435.800 - 435.900 CW/SSB
ISS 03 Oct 02:21:54 02:22:49 11° 13° (NNE) 02:23:43 145.800 FM
Gurwin Techsat 1B 03 Oct 02:48:31 02:51:27 15° 91° (E) 02:54:22 435.225 FM
Oscar 19 03 Oct 02:54:45 02:59:55 88° 104° (ESE) 03:05:02 437.125 CW, 437.150 USB
ITAMSAT 1 03 Oct 03:11:08 03:16:14 51° 100° (E) 03:21:18 435.822 SSB
Uribyol 2 03 Oct 03:11:27 03:16:36 55° 101° (E) 03:21:42 436.500 FM
TMSAT-1 03 Oct 03:15:05 03:18:56 20° 93° (E) 03:22:44 436.925 FM
AO-Echo 03 Oct 03:29:01 03:34:06 84° 284° (WNW) 03:39:19 ?
Oscar 16 03 Oct 03:36:35 03:41:16 36° 291° (WNW) 03:45:55 437.025 USB, Beacon 2401.1428
AO-27 03 Oct 03:50:07 03:55:19 67° 286° (WNW) 04:00:29 436.795 MHz FM
ISS 03 Oct 03:57:13 04:00:18 34° 32° (NNE) 04:03:22 145.800 FM
SO-50 03 Oct 03:58:10 04:02:55 54° 55° (NE) 04:07:41 436.795 FM
KITSAT 1 03 Oct 04:08:17 04:14:38 26° 255° (WSW) 04:20:59 435.175 FM
JAS-1B 03 Oct 04:09:13 04:14:32 41° 290° (WNW) 04:20:18 435.800 - 435.900 CW/SSB
OPAL 03 Oct 04:13:04 04:17:04 23° 63° (ENE) 04:21:04 ?
RS-15 03 Oct 04:13:19 04:23:37 44° 314° (NW) 04:33:56 29.354 - 29.394 USB, Beacon 29.352 USB
UOSAT-12 03 Oct 04:17:10 04:18:09 11° 38° (NE) 04:19:08 437.025 FM, 437.400 FM
Gurwin Techsat 1B 03 Oct 04:26:34 04:31:49 63° 287° (WNW) 04:37:03 435.225 FM
Oscar 19 03 Oct 04:37:06 04:38:28 11° 300° (WNW) 04:39:50 437.125 CW, 437.150 USB
AO-7 03 Oct 04:43:11 04:50:29 33° 97° (E) 04:57:45 29.400 - 29.500 MHz
MaSat-1 03 Oct 04:46:27 04:50:27 26° 106° (ESE) 04:54:20 437.345 MHz
ITAMSAT 1 03 Oct 04:51:40 04:55:18 19° 296° (WNW) 04:58:55 435.822 SSB
Uribyol 2 03 Oct 04:52:09 04:55:36 18° 297° (WNW) 04:59:03 436.500 FM
Uosat F 03 Oct 04:52:59 04:57:12 26° 96° (E) 05:01:23 435.120 FM
TMSAT-1 03 Oct 04:53:59 04:59:03 47° 289° (WNW) 05:04:06 436.925 FM
ISS 03 Oct 05:34:08 05:36:52 24° 228° (SW) 05:39:36 145.800 FM
SO-50 03 Oct 05:39:56 05:43:04 17° 251° (WSW) 05:46:12 436.795 FM
OPAL 03 Oct 05:50:41 05:55:38 44° 259° (W) 06:00:36 ?
UOSAT-12 03 Oct 05:54:30 05:59:13 67° 57° (ENE) 06:03:50 437.025 FM, 437.400 FM
Hamsat 03 Oct 05:56:30 05:57:59 12° 91° (E) 05:59:27 145.90 MHz
JAS-2 03 Oct 06:04:51 06:10:59 33° 96° (E) 06:17:36 435.800 - 435.900 CW/SSB, 435.910 FM
MaSat-1 03 Oct 06:22:24 06:26:45 33° 300° (WNW) 06:30:53 437.345 MHz
Uosat F 03 Oct 06:31:29 06:35:58 33° 291° (WNW) 06:40:27 435.120 FM
RS-15 03 Oct 06:33:16 06:40:01 18° 346° (NNW) 06:46:51 29.354 - 29.394 USB, Beacon 29.352 USB
AO-7 03 Oct 06:35:31 06:43:28 52° 295° (WNW) 06:51:24 29.400 - 29.500 MHz
STRAND 1 03 Oct 06:55:46 07:00:44 56° 73° (ENE) 07:05:44 ?
Hamsat 03 Oct 07:30:10 07:34:14 51° 286° (WNW) 07:38:16 145.90 MHz
UOSAT-12 03 Oct 07:36:45 07:38:45 13° 253° (WSW) 07:40:44 437.025 FM, 437.400 FM
JAS-2 03 Oct 07:49:34 07:56:02 47° 290° (WNW) 08:03:08 435.800 - 435.900 CW/SSB, 435.910 FM
Sapphire 03 Oct 08:02:36 08:04:05 11° 102° (ESE) 08:05:35 437.095 MHz 1200 baud AX-25 AFSK
SO-67 03 Oct 08:08:35 08:11:59 55° 100° (E) 08:15:22 435.3500 MHz FM
PCSat 03 Oct 08:25:04 08:29:06 22° 106° (ESE) 08:33:08 145.825 MHz
AO-7 03 Oct 08:32:56 08:34:20 11° 315° (NW) 08:35:44 29.400 - 29.500 MHz
HO-68 03 Oct 08:35:16 08:36:37 11° 88° (E) 08:37:58 435.675 MHz FM
STRAND 1 03 Oct 08:37:17 08:40:15 16° 268° (W) 08:43:15 ?
RS-15 03 Oct 08:50:35 08:58:27 21° 24° (NNE) 09:06:27 29.354 - 29.394 USB, Beacon 29.352 USB
Sapphire 03 Oct 09:41:18 09:46:42 85° 298° (WNW) 09:52:09 437.095 MHz 1200 baud AX-25 AFSK
